Regional Weather Roundup
Issued by NWS

Home | Current Version | Previous Version | Text Only | Print | Product List | Glossary Off
Versions: 1 2 3 4 5 6 7 8 9 10 11 12 13 14 15 16 17 18 19 20 21 22 23 24 25 26 27 28 29 30 31 32 33 34 35 36 37 38 39 40 41 42 43 44 45 46 47 48 49 50

000
ASUS45 KPSR 290610
RWRAZ

ARIZONA REGIONAL HOURLY WEATHER ROUNDUP
NATIONAL WEATHER SERVICE PHOENIX AZ
1100 PM MST SAT MAR 28 2015

NOTE: FAIR INDICATES FEW OR NO CLOUDS BELOW 12,000 FEET WITH NO
SIGNIFICANT WEATHER AND/OR OBSTRUCTIONS TO VISIBILITY.

AZZ001>003-036-290700-
NORTHWEST ARIZONA

CITY           SKY/WX    TMP DP  RH WIND       PRES   REMARKS
BULLHEAD CITY  CLEAR     77  25  14 CALM      29.96R
KINGMAN        CLEAR     62  22  21 CALM      30.13R
6HR MIN TEMP:  54; 6HR MAX TEMP:  82;

$$

AZZ004>008-015-016-018-290700-
NORTH CENTRAL ARIZONA

CITY           SKY/WX    TMP DP  RH WIND       PRES   REMARKS
GRAND CANYON   CLEAR     35  19  52 CALM      30.30R
6HR MIN TEMP:  34; 6HR MAX TEMP:  71;

WILLIAMS       CLEAR     46  19  34 SW3       30.38R
PRESCOTT       CLEAR     50  25  37 S6        30.23R
6HR MIN TEMP:  49; 6HR MAX TEMP:  75;

FLAGSTAFF      CLEAR     41  21  44 W3        30.33R
6HR MIN TEMP:  39; 6HR MAX TEMP:  69;

PAYSON         CLEAR     55  21  26 CALM      30.25R
PAGE           CLEAR     67  20  16 W5        30.12R
6HR MIN TEMP:  64; 6HR MAX TEMP:  83;

$$

AZZ009>014-017-290700-
NORTHEAST ARIZONA

CITY           SKY/WX    TMP DP  RH WIND       PRES   REMARKS
WINSLOW        CLEAR     59  20  22 SW9       30.19R
6HR MIN TEMP:  58; 6HR MAX TEMP:  81;

SAINT JOHNS    CLEAR     56   7  14 SW14      30.22S
6HR MIN TEMP:  56; 6HR MAX TEMP:  78;

WINDOW ROCK    CLEAR     39  12  33 CALM      30.27R
6HR MIN TEMP:  39; 6HR MAX TEMP:  73;

SHOW LOW       CLEAR     50  10  20 S12       30.31S
$$

AZZ023-290700-
GREATER PHOENIX AREA

CITY           SKY/WX    TMP DP  RH WIND       PRES   REMARKS
PHOENIX        PTCLDY    77  28  16 E8        29.97R
6HR MIN TEMP:  77; 6HR MAX TEMP:  94;

BUCKEYE        CLEAR     64  30  27 N9        29.98S
LUKE AFB       CLEAR     68  41  37 N7        29.97R
6HR MIN TEMP:  67; 6HR MAX TEMP:  91; 6HR PCP: TRACE;

DEER VALLEY    CLEAR     72  29  20 NE10      30.00R
6HR MIN TEMP:  70; 6HR MAX TEMP:  90;

SCOTTSDALE     CLEAR     72  33  24 CALM      30.02R
6HR MIN TEMP:  71; 6HR MAX TEMP:  91;

MESA-GATEWAY   CLEAR     66  25  20 VRB7      30.02R
$$

AZZ027-028-290700-
SOUTHWEST MARICOPA COUNTY AND PINAL COUNTY

CITY           SKY/WX    TMP DP  RH WIND       PRES   REMARKS
CASA GRANDE    MOCLDY    66  21  18 CALM      29.99S
6HR MIN TEMP:  66; 6HR MAX TEMP:  91;

GILA BEND      FAIR      74  19  12 S10       29.96R
6HR MIN TEMP:  72; 6HR MAX TEMP:  94;

$$

AZZ503-504-507>509-290700-
SOUTHEAST ARIZONA

CITY           SKY/WX    TMP DP  RH WIND       PRES   REMARKS
TUCSON         PTCLDY    67  25  20 S7        30.10R
6HR MIN TEMP:  67; 6HR MAX TEMP:  92;

DAVIS-MONTHAN  PTCLDY    64  25  22 S6        30.08R
6HR MIN TEMP:  64; 6HR MAX TEMP:  89;

NOGALES        CLEAR     60  23  24 E6        30.17R
6HR MIN TEMP:  60; 6HR MAX TEMP:  87;

SIERRA VISTA   PTCLDY    65  18  16 SW9       30.21S
6HR MIN TEMP:  65; 6HR MAX TEMP:  82;

DOUGLAS        PTCLDY    53  25  33 N9        30.17S
6HR MIN TEMP:  53; 6HR MAX TEMP:  86;

SAFFORD        CLEAR     63  14  15 NW8       30.09R
6HR MIN TEMP:  63; 6HR MAX TEMP:  89;

$$

AZZ020-021-025-026-031-290700-
SOUTHWEST ARIZONA

CITY           SKY/WX    TMP DP  RH WIND       PRES   REMARKS
YUMA           PTCLDY    78  37  22 CALM      29.95R
6HR MIN TEMP:  77; 6HR MAX TEMP:  97;

$$

CAZ031-033-041-043-047-048-061-290700-
SOUTHERN CALIFORNIA

CITY           SKY/WX    TMP DP  RH WIND       PRES   REMARKS
DOWNTOWN L.A.  CLEAR     62  58  86 CALM      30.04S
6HR MIN TEMP:  62; 6HR MAX TEMP:  79;

L.A. AIRPORT   PTCLDY    59  57  93 W5        30.06R
6HR MIN TEMP:  59; 6HR MAX TEMP:  67;

SAN DIEGO      CLOUDY    65  59  81 NW3       30.06S
6HR MIN TEMP:  65; 6HR MAX TEMP:  71;

BURBANK        CLEAR     68  49  50 CALM      30.05R
6HR MIN TEMP:  68; 6HR MAX TEMP:  84;

ONTARIO        PTCLDY    66  48  52 CALM      30.06R
6HR MIN TEMP:  66; 6HR MAX TEMP:  86;

RIVERSIDE      PTCLDY    69  43  38 CALM      30.06R
6HR MIN TEMP:  69; 6HR MAX TEMP:  86;

PALM SPRINGS   PTCLDY    85  26  11 NW9       29.97R
6HR MIN TEMP:  85; 6HR MAX TEMP:  99;

EL CENTRO NAS  PTCLDY    78  26  14 W8        29.93R
6HR MIN TEMP:  76; 6HR MAX TEMP:  97;

IMPERIAL       PTCLDY    74  39  28 W8        29.92R
6HR MIN TEMP:  73; 6HR MAX TEMP:  98;

BLYTHE         CLEAR     81  27  14 SW7       29.94R
6HR MIN TEMP:  77; 6HR MAX TEMP:  96;

NEEDLES        CLEAR     76  22  13 CALM      29.96R
6HR MIN TEMP:  76; 6HR MAX TEMP:  97;

$$

NVZ020-UTZ003-290700-
SOUTHERN NEVADA-UTAH

CITY           SKY/WX    TMP DP  RH WIND       PRES   REMARKS
LAS VEGAS      CLEAR     73  18  12 S10       29.98R
6HR MIN TEMP:  73; 6HR MAX TEMP:  90;

SALT LAKE CITY CLEAR     49  29  46 N9        30.25R
6HR MIN TEMP:  49; 6HR MAX TEMP:  70;

$$

NMZ009-TXZ055-290700-
NEW MEXICO-WEST TEXAS

CITY           SKY/WX    TMP DP  RH WIND       PRES   REMARKS
ALBUQUERQUE    CLEAR     64  13  13 N7        30.15R
6HR MIN TEMP:  59; 6HR MAX TEMP:  80;

EL PASO        CLEAR     78   4   5 W18       30.08F
6HR MIN TEMP:  73; 6HR MAX TEMP:  87;

$$


........................KEY........................
SKY/WX - SKY CONDITION/WEATHER
TMP    - TEMPERATURE IN FAHRENHEIT
DP     - DEW POINT IN FAHRENHEIT
RH     - RELATIVE HUMIDITY IN PERCENT
WIND   - DIRECTION AND SPEED IN MILES PER HOUR (MPH)
VRB    - VARIABLE WIND DIRECTION
PRES   - MEAN SEA LEVEL PRESSURE IN INCHES OF MERCURY
         F - FALLING PRESSURE   R - RISING PRESSURE
         S - STEADY PRESSURE
VSB    - VISIBILITY IN MILES
HX     - HEAT INDEX IN FAHRENHEIT
WCI    - WIND CHILL INDEX IN FAHRENHEIT
TC     - TEMPERATURE IN CELSIUS WHICH IS ALSO KNOWN AS
         TEMPERATURE IN CENTIGRADE
AFB    - AIR FORCE BASE
         LUKE AFB IS LUKE AIR FORCE BASE
         DAVIS-MONTHAN IS DAVIS-MONTHAN AIR FORCE BASE
NAS    - NAVAL AIR STATION
         EL CENTRO NAS IS EL CENTRO NAVAL AIR STATION
N/A    - NOT AVAILABLE



USA.gov is the U.S. government's official web portal to all federal, state and local government web resources and services.